Regional Weather Roundup
Issued by NWS

Home | Current Version | Previous Version | Graphics & Text | Print | Product List | Glossary On
Versions: 1 2 3 4 5 6 7 8 9 10 11 12 13 14 15 16 17 18 19 20 21 22 23 24 25 26 27 28 29 30 31 32 33 34 35 36 37 38 39 40 41 42 43 44 45 46 47 48 49 50
000
ASUS43 KLOT 211006
RWRIL

ILLINOIS REGIONAL WEATHER ROUNDUP
NATIONAL WEATHER SERVICE CHICAGO/ROMEOVILLE IL
500 AM CDT TUE OCT 21 2014

NOTE: "FAIR" INDICATES FEW OR NO CLOUDS BELOW 12,000 FEET WITH NO
SIGNIFICANT WEATHER AND/OR OBSTRUCTIONS TO VISIBILITY.

* THESE STATIONS ARE NOT UNDER NWS QUALITY CONTROL. THEY ALSO MAY NOT
  REPORT WEATHER SUCH AS PRECIPITATION OR FOG.

ILZ001-002-007-009-015-016-024-211100-
NORTHWEST ILLINOIS

CITY           SKY/WX    TMP DP  RH WIND       PRES   REMARKS
MOLINE         CLEAR     39  37  92 W3        30.09R
STERLING*      CLEAR     39  36  87 N5        30.09R
SAVANNA*       CLEAR     39  38  96 NW3       30.10R
$$

ILZ003-004-008-010-011-017-018-211100-
NORTH CENTRAL ILLINOIS

CITY           SKY/WX    TMP DP  RH WIND       PRES   REMARKS
ROCKFORD       PTCLDY    44  40  85 NW7       30.10R
FREEPORT*      CLEAR     38  37  93 NW3       30.11R
ROCHELLE*      PTCLDY    40  39  95 N5        30.08R
DE KALB*       CLOUDY    44  41  88 N5        30.07R
PERU*          PTCLDY    42  39  89 NW6       30.08R
$$

ILZ005-006-012>014-019>023-211100-
NORTHEAST ILLINOIS

CITY           SKY/WX    TMP DP  RH WIND       PRES   REMARKS
CHICAGO-OHARE  CLOUDY    49  41  74 N10       30.04R
CHICAGO-MIDWAY CLOUDY    52  43  71 N9        30.04R
AURORA         CLOUDY    47  42  83 NW5       30.06R
LANSING*       CLOUDY    50  46  87 N6        30.04R
JOLIET*        CLOUDY    49  43  80 CALM      30.05R
WAUKEGAN       CLEAR     45  40  82 NW6       30.05R
DUPAGE AIRPORT CLOUDY    48  40  73 N9        30.05R
KANKAKEE*      CLOUDY    48  44  84 NW5       30.05R
WHEELING       CLOUDY    50  41  71 N8        30.06R
MORRIS*        CLOUDY    47  44  90 CALM      30.04R
ROMEOVILLE*    CLOUDY    49  42  78 N5        30.05R
NORTHERLY ISL    N/A     51  44  77 N9          N/A
$$

LMZ740>746-211100-
SOUTHERN LAKE MICHIGAN

STATION/POSITION SKY/WX   TEMP    WIND        PRES    VSBY  WAVE
                          AIR SEA DIR/SP/G                  HT/PER
                          (F)     (DEG/KT/KT) (MB)    (MI)  (FT/S)
SOUTHERN BUOY              49 54  330/ 19/ 23 1016.9R         5/ 6
WAUKEGAN HARBOR            48     340/  9/ 11   N/A
HARRISON CRIB              51     360/ 20/ 24   N/A
BURNHAM HARBOR             51     340/  9/ 16   N/A
CALUMET HARBOR             50     360/  9/ 14 1016.0R
MICHIGAN CITY              51     350/ 17/ 20   N/A
$$

ILZ025>027-034>036-040-047-049-050-058-095>099-211100-
WEST-CENTRAL ILLINOIS

CITY           SKY/WX    TMP DP  RH WIND       PRES   REMARKS
QUINCY           N/A     44  40  85 NE6       30.06R
GALESBURG*     CLEAR     35  34  96 N3        30.08S
MACOMB*        CLEAR     38  37  97 CALM      30.10R
JACKSONVILLE*  CLEAR     45  42  89 N3        30.06R
PITTSFIELD*    CLEAR     46  42  84 W3        30.07R
$$

ILZ028>032-037-038-041>044-048-051>054-059>061-211100-
CENTRAL ILLINOIS

CITY           SKY/WX    TMP DP  RH WIND       PRES   REMARKS
PONTIAC        MOCLDY    46  45  93 N7        30.06R
BLOOMINGTON    CLEAR     44  40  86 NW7       30.06R
DECATUR        CLEAR     43  41  93 CALM      30.05R
PEORIA         CLEAR     47  40  76 N3        30.07R
LACON*         CLEAR     39  38  96 CALM      30.07R
LINCOLN*       CLEAR     44  42  91 CALM      30.05R
SPRINGFIELD    CLEAR     42  39  89 CALM      30.05R
TAYLORVILLE    CLEAR     39  39 100 N3        30.05R
$$

ILZ033-039-045-046-055>057-062-063-211100-
EAST-CENTRAL ILLINOIS

CITY           SKY/WX    TMP DP  RH WIND       PRES   REMARKS
CHAMPAIGN      CLOUDY    44  43  96 N5        30.04R FOG
DANVILLE*      CLOUDY    48  46  94 NW5       30.00R
RANTOUL*       MOCLDY    47  44  90 NW5       30.05R FOG
MATTOON        CLEAR     44  42  93 CALM      30.02R
PARIS*         CLOUDY    45  45  99 CALM      30.03S FOG
$$

ILZ079-100>102-211100-
SOUTHWEST ILLINOIS

CITY           SKY/WX    TMP DP  RH WIND       PRES   REMARKS
ALTON          CLEAR     44  42  93 W5        30.05R
BELLEVILLE     CLEAR     45  43  95 W2        30.04R
CAHOKIA*       CLEAR     45  43  93 CALM      30.05R
SPARTA*        CLEAR     49  44  80 CALM      30.05R
$$

ILZ064>066-069>071-074>076-080>082-084>086-088>090-092>094-211100-
SOUTH-CENTRAL ILLINOIS

CITY           SKY/WX    TMP DP  RH WIND       PRES   REMARKS
CARBONDALE     CLEAR     43  40  89 CALM      30.04R
CAIRO*         CLEAR     48  46  93 CALM      30.04S FOG
EFFINGHAM*     CLEAR     42  40  91 CALM      30.03R
MARION         CLEAR     48  46  93 CALM      30.04R
MT. VERNON     CLEAR     45  39  81 CALM      30.03S
CENTRALIA*     CLEAR     45  42  88 CALM      30.03R
SALEM*         CLEAR     46  45  97 CALM      30.03S
METROPOLIS*    CLEAR     45  45 100 CALM      30.03S FOG
$$

ILZ067-068-072-073-078-083-087-091-211100-
SOUTHEAST ILLINOIS

CITY           SKY/WX    TMP DP  RH WIND       PRES   REMARKS
LAWRENCEVILLE  CLEAR     45  43  93 NW3       30.03R
FLORA*         CLEAR     43  42  97 CALM      30.03R
FAIRFIELD*     CLEAR     42  42  98 CALM      30.02R
HARRISBURG*    CLEAR     44  44 100 CALM      30.04R
ROBINSON*      CLEAR     42  42  98 CALM      30.03S
CARMI*         CLEAR     44  44  99 CALM      30.02R
$$

ABBREVIATIONS USED IN REMARKS
   TC - TEMPERATURE IN CELSIUS
  WCI - WIND CHILL INDEX
   HX - HEAT INDEX
  VSB - VISIBILITY
$$



USA.gov is the U.S. government's official web portal to all federal, state and local government web resources and services.